Probability
0 0 0 0 0 0 0 0 0 0 0 0 0 0 0 0 0 0 0 0 0 42 42 29 97 97 97 100 97 94 87 48 32 13 0 0 0 0 0 0 0 0 0 0 0 0 0 0 0
0 0 0 0 0 0 0 0 0 0 0 0 0 0 0 0 0 0 0 0 0 16 16 3 97 94 94 97 97 87 68 42 19 6 0 0 0 0 0 0 0 0 0 0 0 0 0 0 0
0 0 0 0 0 0 0 0 0 0 0 0 0 0 0 0 0 0 0 0 3 3 3 3 97 94 84 81 71 74 61 35 10 6 0 0 0 0 0 0 0 0 0 0 0 0 0 0 0
0 0 0 0 0 0 0 0 0 0 0 0 0 0 0 0 0 0 0 0 0 0 0 10 94 77 74 65 52 55 45 23 10 6 0 0 0 0 0 0 0 0 0 0 0 0 0 0 0
0 0 0 0 0 0 0 0 0 0 0 0 0 0 0 0 0 0 0 0 0 0 0 0 58 48 29 35 32 32 26 23 3 3 0 0 0 0 0 0 0 0 0 0 0 0 0 0 0
0 0 0 0 0 0 0 0 0 0 0 0 0 0 0 0 0 3 0 6 0 0 0 0 16 10 6 10 10 26 23 13 0 3 0 0 0 0 0 0 0 0 0 0 0 0 0 0 0
0 0 0 0 0 0 0 0 0 0 0 0 0 0 0 0 0 6 6 6 3 0 0 0 0 0 0 0 0 3 26 19 6 3 0 0 0 0 0 0 0 0 0 0 0 0 0 0 0
0 0 0 0 0 0 0 0 0 0 0 0 0 0 0 0 3 3 10 13 13 3 0 0 0 0 0 0 0 0 0 0 0 0 0 0 0 0 0 0 0 0 0 0 0 0 0 0 0
0 0 0 0 0 0 0 0 0 0 0 0 0 0 0 0 3 3 3 6 6 0 6 0 0 0 0 0 0 0 0 0 0 0 0 0 0 0 0 0 0 0 0 0 0 0 0 0 0
0 0 0 0 0 0 0 0 0 0 0 0 0 0 0 0 6 10 10 10 6 3 3 0 0 0 0 0 0 0 0 0 0 0 0 0 0 0 0 0 0 0 0 0 0 0 0 0 0
0 0 0 0 0 0 0 0 0 0 0 0 0 0 0 6 10 6 6 13 13 6 3 0 0 0 0 0 0 0 0 0 0 0 0 0 0 0 0 0 0 0 0 0 0 0 0 0 0
0 0 0 0 0 0 0 0 0 0 0 0 0 0 0 3 6 6 13 10 13 13 6 0 0 0 0 0 0 0 0 0 0 0 0 0 0 0 0 0 0 0 0 0 0 0 0 0 0
0 0 0 0 0 0 0 0 0 0 0 0 0 0 0 0 0 0 3 3 13 19 23 16 3 6 3 0 0 0 0 0 0 0 0 0 0 0 0 0 0 0 0 0 0 0 0 0 0
0 0 0 0 0 0 0 0 0 0 0 0 0 0 0 0 0 0 0 0 10 19 26 35 23 16 6 3 6 0 0 0 0 0 0 0 0 0 0 0 0 0 0 0 0 0 0 0 0
0 0 0 0 0 0 0 0 0 0 0 0 0 0 0 0 0 0 0 0 3 6 16 32 52 45 32 23 6 0 0 0 0 0 0 0 0 0 0 0 0 0 0 0 0 0 0 0 0
0 0 0 0 0 0 0 0 0 0 0 0 0 0 0 0 0 0 0 0 0 3 6 13 23 55 68 65 42 10 0 0 0 0 0 0 0 0 0 0 0 0 0 0 0 0 0 0 0
0 0 0 0 0 0 0 0 0 0 0 0 0 0 0 0 0 0 0 0 0 0 0 3 16 29 71 84 71 45 26 0 0 0 0 0 0 0 0 0 0 0 0 0 0 0 0 0 0
0 0 0 0 0 0 0 0 0 0 0 0 0 0 0 0 0 0 0 0 0 0 0 0 3 16 23 52 68 68 32 13 0 0 0 0 0 0 0 0 0 0 0 0 0 0 0 0 0
0 0 0 0 0 0 0 0 0 0 0 0 0 0 0 0 0 0 0 0 0 0 0 0 0 3 10 23 32 26 26 23 6 3 0 0 0 0 0 0 0 0 0 0 0 0 0 0 0
0 0 0 0 0 0 0 0 0 0 0 0 0 0 0 0 0 0 0 0 0 0 0 0 0 0 0 6 13 16 23 23 19 10 6 0 0 0 0 0 0 0 0 0 0 0 0 0 0
0 0 0 0 0 0 0 0 0 0 0 0 0 0 0 0 0 0 0 0 0 0 0 0 0 0 0 0 3 10 23 32 26 19 16 3 0 0 0 0 0 0 0 0 0 0 0 0 0
0 0 0 0 0 0 0 0 0 0 0 0 0 0 0 0 0 0 0 0 0 0 0 0 0 0 0 0 0 0 0 0 0 10 13 26 19 3 0 0 0 0 0 0 0 0 0 0 0
0 0 0 0 0 0 0 0 0 0 0 0 0 0 0 0 0 0 0 0 0 0 0 0 0 0 0 0 0 0 0 0 0 6 19 26 19 16 3 0 0 0 0 0 0 0 0 0 0
0 0 0 0 0 0 0 0 0 0 0 0 0 0 0 0 0 0 0 0 0 0 0 0 0 0 0 0 0 0 0 0 0 6 10 26 29 23 13 3 0 0 0 0 0 0 0 0 0
0 0 0 0 0 0 0 0 0 0 0 0 0 0 0 0 0 0 0 0 0 0 0 0 0 0 0 0 0 0 0 0 0 0 10 13 10 16 10 16 0 0 0 0 0 0 0 0 0
0 0 0 0 0 0 0 0 0 0 0 0 0 0 0 0 0 0 0 0 0 0 0 0 0 0 0 0 0 0 0 0 0 0 6 6 3 6 13 13 10 0 0 0 0 0 0 0 0
0 0 0 0 0 0 0 0 0 0 0 0 0 0 0 0 0 0 0 0 0 0 0 0 0 0 0 0 0 0 0 0 0 0 0 3 10 10 10 13 3 0 0 0 0 0 0 0 0
0 0 0 0 0 0 0 0 0 0 0 0 0 0 0 0 0 0 0 0 0 0 0 0 0 0 0 0 0 0 0 0 0 0 0 0 0 0 6 3 0 3 0 0 0 0 0 0 0
0 0 0 0 0 0 0 0 0 0 0 0 0 0 0 0 0 0 0 0 0 0 0 0 0 0 0 0 0 0 0 0 0 0 0 0 0 0 3 6 0 0 0 0 0 0 0 0 0
0 0 0 0 0 0 0 0 0 0 0 0 0 0 0 0 0 0 0 0 0 0 0 0 0 0 0 0 0 0 0 0 0 0 0 0 0 0 0 0 0 0 0 0 0 0 0 0 0
Height
5815 5820 5825 5830 5834 5838 5842 5846 5848 5851 5854 5857 5860 5862 5865 5868 5871 5875 5875 5875 5876 5877 5878 5879 5880 5880 5881 5882 5882 5882 5883 5883 5882 5882 5882 5881 5881 5880 5880 5879 5878 5878 5877 5876 5876 5875 5875 5875 5875
5808 5814 5819 5823 5828 5833 5838 5841 5843 5846 5850 5853 5856 5858 5861 5864 5867 5869 5870 5872 5873 5874 5875 5876 5877 5878 5878 5879 5879 5880 5880 5880 5880 5880 5879 5879 5878 5878 5877 5877 5876 5875 5874 5873 5873 5873 5872 5872 5872
5802 5807 5813 5817 5822 5828 5833 5835 5838 5842 5845 5849 5852 5855 5858 5861 5864 5866 5868 5869 5870 5871 5872 5874 5874 5875 5876 5876 5877 5877 5877 5877 5877 5877 5877 5876 5876 5875 5875 5874 5873 5873 5872 5871 5870 5870 5869 5869 5868
5795 5800 5806 5811 5818 5824 5828 5830 5833 5837 5841 5844 5848 5851 5854 5858 5860 5863 5864 5866 5867 5868 5869 5870 5871 5872 5872 5873 5873 5874 5874 5874 5874 5874 5874 5873 5873 5872 5872 5871 5870 5870 5869 5868 5868 5867 5867 5866 5865
5787 5793 5798 5804 5813 5819 5821 5824 5828 5832 5836 5840 5844 5847 5850 5854 5856 5859 5861 5862 5864 5865 5866 5867 5868 5868 5869 5869 5870 5870 5871 5871 5871 5871 5870 5870 5870 5869 5868 5868 5867 5866 5866 5865 5865 5864 5863 5863 5862
5780 5786 5792 5800 5809 5814 5815 5818 5823 5827 5831 5835 5839 5842 5846 5850 5852 5854 5857 5858 5860 5861 5862 5863 5864 5864 5865 5866 5866 5866 5867 5867 5867 5867 5867 5867 5866 5866 5865 5864 5864 5863 5862 5862 5861 5861 5860 5859 5859
5774 5780 5786 5795 5803 5807 5810 5813 5818 5822 5826 5830 5834 5838 5842 5845 5848 5850 5852 5854 5856 5857 5858 5858 5859 5860 5861 5861 5862 5862 5862 5863 5863 5863 5863 5863 5863 5862 5861 5861 5860 5860 5859 5858 5858 5857 5857 5856 5855
5766 5774 5779 5788 5796 5802 5804 5807 5812 5817 5821 5826 5830 5834 5837 5841 5843 5846 5848 5850 5851 5852 5853 5853 5854 5855 5856 5857 5857 5857 5858 5858 5858 5858 5858 5858 5858 5858 5857 5857 5856 5856 5855 5855 5854 5854 5853 5852 5852
5759 5766 5774 5784 5792 5797 5799 5802 5807 5812 5816 5821 5826 5830 5833 5836 5838 5841 5843 5845 5846 5847 5848 5849 5850 5850 5851 5852 5852 5853 5853 5853 5853 5854 5854 5854 5854 5854 5853 5853 5852 5852 5851 5851 5850 5850 5849 5849 5848
5751 5759 5771 5779 5786 5790 5793 5796 5801 5807 5811 5816 5820 5824 5827 5830 5833 5835 5837 5839 5841 5842 5843 5845 5845 5846 5847 5847 5847 5848 5848 5848 5848 5849 5849 5849 5849 5849 5849 5849 5848 5848 5847 5847 5846 5846 5845 5844 5844
5745 5755 5764 5772 5778 5783 5786 5790 5795 5800 5805 5810 5814 5819 5822 5825 5827 5830 5832 5834 5836 5837 5839 5840 5841 5841 5842 5842 5843 5843 5843 5843 5844 5844 5844 5844 5844 5844 5844 5844 5843 5843 5842 5842 5842 5841 5840 5840 5839
5741 5749 5757 5764 5770 5776 5780 5785 5790 5794 5799 5804 5808 5813 5816 5819 5822 5824 5826 5828 5831 5833 5834 5835 5836 5836 5837 5837 5838 5838 5838 5838 5838 5838 5839 5839 5839 5839 5839 5839 5838 5838 5837 5837 5837 5836 5835 5835 5834
5734 5742 5750 5756 5763 5769 5774 5779 5784 5789 5793 5798 5802 5806 5810 5813 5816 5819 5821 5823 5825 5827 5828 5829 5830 5831 5831 5832 5832 5833 5833 5833 5833 5833 5833 5834 5834 5834 5834 5834 5833 5833 5832 5832 5831 5831 5830 5830 5829
5727 5735 5742 5748 5755 5762 5768 5773 5779 5784 5787 5791 5796 5800 5804 5807 5810 5814 5816 5818 5820 5821 5822 5824 5825 5825 5826 5826 5827 5827 5827 5827 5827 5827 5828 5828 5828 5828 5828 5828 5828 5827 5826 5826 5826 5825 5825 5824 5824
5719 5726 5733 5741 5748 5756 5762 5768 5774 5778 5781 5785 5789 5794 5798 5801 5805 5808 5811 5813 5814 5815 5816 5818 5818 5819 5820 5820 5821 5821 5821 5821 5821 5821 5822 5822 5822 5822 5822 5822 5822 5821 5820 5820 5819 5819 5818 5818 5818
5711 5718 5726 5736 5743 5750 5758 5764 5768 5771 5775 5779 5783 5787 5791 5795 5798 5802 5804 5806 5808 5809 5811 5811 5812 5813 5814 5814 5814 5814 5814 5814 5815 5815 5815 5815 5816 5816 5815 5815 5815 5814 5814 5813 5813 5812 5812 5811 5811
5704 5714 5723 5731 5737 5744 5751 5758 5762 5765 5769 5773 5776 5780 5784 5788 5791 5794 5797 5800 5802 5804 5805 5806 5806 5807 5807 5807 5808 5808 5808 5808 5808 5808 5808 5808 5808 5808 5808 5807 5807 5807 5807 5806 5806 5805 5805 5804 5804
5705 5713 5719 5726 5732 5739 5745 5751 5756 5758 5762 5765 5769 5772 5776 5780 5783 5786 5790 5793 5795 5797 5799 5800 5800 5801 5800 5800 5800 5800 5800 5800 5800 5800 5800 5800 5800 5799 5799 5799 5799 5799 5799 5799 5798 5798 5797 5797 5797
5699 5706 5713 5719 5726 5732 5738 5744 5749 5751 5755 5759 5762 5765 5769 5772 5776 5779 5782 5785 5787 5789 5791 5792 5793 5793 5793 5793 5793 5792 5792 5792 5791 5791 5791 5790 5790 5790 5790 5791 5791 5790 5790 5790 5789 5789 5789 5789 5789
5693 5700 5707 5714 5720 5726 5732 5738 5741 5744 5748 5752 5756 5759 5762 5765 5768 5771 5774 5777 5779 5781 5783 5784 5784 5784 5784 5784 5784 5784 5783 5783 5782 5782 5781 5781 5781 5781 5781 5781 5781 5781 5781 5780 5780 5780 5780 5781 5781
5689 5696 5703 5710 5716 5721 5727 5731 5734 5738 5742 5746 5749 5752 5755 5758 5761 5764 5766 5768 5770 5772 5773 5774 5775 5775 5775 5775 5774 5774 5773 5773 5773 5772 5771 5771 5770 5769 5770 5770 5770 5770 5770 5770 5770 5771 5771 5771 5771
5685 5691 5698 5704 5710 5715 5721 5724 5728 5732 5736 5740 5743 5746 5749 5751 5754 5756 5758 5760 5761 5763 5763 5764 5764 5764 5764 5764 5763 5763 5763 5763 5762 5760 5760 5758 5757 5757 5757 5758 5758 5758 5759 5759 5760 5760 5760 5760 5761
5680 5687 5693 5699 5704 5710 5714 5718 5722 5726 5730 5734 5736 5739 5742 5744 5746 5748 5750 5751 5752 5753 5754 5754 5753 5753 5753 5752 5752 5751 5751 5751 5750 5748 5747 5746 5745 5745 5745 5745 5745 5745 5746 5747 5748 5748 5749 5749 5750
5676 5683 5688 5693 5698 5704 5709 5713 5716 5720 5723 5727 5730 5732 5734 5737 5739 5740 5741 5742 5743 5743 5743 5743 5743 5742 5741 5741 5740 5739 5738 5737 5736 5735 5734 5733 5732 5732 5732 5731 5731 5732 5733 5734 5734 5735 5736 5737 5738
5672 5679 5684 5688 5692 5698 5703 5706 5711 5714 5717 5719 5722 5725 5727 5729 5731 5732 5733 5734 5734 5734 5734 5733 5732 5731 5730 5729 5727 5726 5724 5723 5722 5720 5719 5718 5717 5717 5717 5717 5717 5718 5719 5720 5721 5722 5724 5725 5725
5669 5675 5681 5685 5689 5693 5696 5700 5704 5707 5710 5712 5715 5718 5720 5721 5723 5724 5725 5725 5725 5725 5724 5723 5722 5721 5719 5717 5715 5712 5710 5708 5706 5704 5702 5701 5700 5700 5700 5700 5701 5703 5704 5705 5707 5709 5711 5712 5713
5666 5670 5675 5680 5683 5688 5691 5694 5698 5701 5704 5706 5709 5711 5712 5714 5715 5716 5716 5717 5716 5716 5715 5713 5712 5710 5707 5705 5702 5699 5696 5693 5690 5687 5684 5682 5680 5680 5680 5681 5683 5685 5687 5690 5692 5695 5697 5699 5701
5663 5667 5671 5675 5679 5683 5686 5689 5693 5696 5698 5701 5703 5704 5706 5707 5708 5708 5708 5708 5708 5707 5706 5704 5702 5699 5696 5693 5690 5686 5681 5677 5673 5669 5665 5662 5659 5658 5659 5660 5663 5666 5669 5673 5676 5680 5683 5685 5687
5661 5665 5668 5671 5675 5679 5682 5687 5688 5690 5693 5695 5697 5699 5700 5701 5701 5701 5701 5700 5699 5698 5696 5694 5692 5689 5686 5682 5678 5673 5667 5661 5656 5650 5644 5640 5637 5636 5636 5638 5641 5645 5650 5654 5659 5663 5667 5670 5673
5657 5661 5664 5668 5671 5674 5677 5683 5683 5686 5688 5690 5692 5693 5694 5695 5695 5695 5694 5693 5691 5689 5687 5685 5682 5679 5675 5671 5666 5660 5653 5646 5638 5630 5624 5618 5615 5614 5615 5617 5621 5626 5631 5636 5641 5647 5651 5655 5659
Wind_Speed
43 42 41 40 39 38 35 33 32 31 29 27 25 24 23 21 20 20 17 16 16 16 16 16 16 17 17 17 17 17 16 16 16 16 16 16 16 16 16 17 18 19 20 20 20 19 18 17 17
44 44 43 42 41 39 36 35 34 32 30 28 27 26 24 23 21 19 18 18 17 17 16 16 17 17 17 17 17 17 17 16 16 16 16 16 16 16 17 17 17 18 18 18 19 19 18 18 17
45 45 45 45 44 40 37 37 36 33 32 30 29 28 26 24 22 20 19 18 17 17 16 16 16 17 16 16 16 16 16 16 16 16 16 16 17 17 18 18 18 18 18 17 18 18 18 18 18
46 46 46 47 44 39 38 39 38 35 33 32 30 28 27 25 22 21 19 18 18 17 17 17 17 17 17 17 16 16 17 18 18 18 18 18 18 19 19 19 19 19 18 18 18 18 19 19 19
47 47 48 48 43 39 39 40 39 36 35 32 30 29 27 24 23 21 20 19 19 18 19 19 20 20 20 20 19 19 19 19 20 20 20 20 19 20 20 20 20 19 18 18 18 18 19 19 19
49 48 49 47 41 39 40 41 39 37 35 33 31 29 27 25 23 22 21 21 21 21 22 23 23 23 23 23 22 21 21 21 21 21 21 20 19 19 20 19 19 19 19 18 19 19 19 20 20
50 49 48 44 39 40 41 41 40 38 36 34 32 30 28 26 25 25 24 24 24 25 26 26 26 26 26 25 24 23 22 22 21 21 21 21 20 19 19 19 19 19 19 19 19 19 20 20 21
50 49 48 44 41 40 42 42 41 39 38 35 33 31 29 27 27 27 27 27 28 28 29 29 29 29 28 28 26 25 24 23 23 22 22 22 21 20 20 20 19 19 19 19 19 19 19 19 20
50 51 49 43 40 40 42 43 41 40 38 36 33 31 29 29 29 29 29 29 30 30 31 31 31 30 30 29 28 27 26 25 25 24 23 23 22 21 21 21 20 20 20 20 20 20 19 20 20
52 51 46 42 40 40 42 42 42 40 38 36 34 31 30 30 30 30 30 30 31 31 31 30 30 30 30 30 29 29 28 27 26 25 25 24 23 23 22 22 22 22 22 21 21 21 21 21 20
52 50 46 42 41 42 43 43 42 40 39 36 34 32 30 30 30 30 30 29 30 30 29 29 29 30 30 31 31 30 29 29 28 27 27 26 25 24 23 23 23 23 23 23 23 23 23 23 22
52 51 47 43 43 44 44 44 42 41 39 37 34 32 31 31 31 30 30 29 29 28 28 29 29 30 31 32 32 31 31 30 30 29 28 27 26 26 25 25 25 25 25 25 25 25 25 25 24
53 51 48 46 44 45 45 45 43 41 40 38 35 33 32 31 31 31 30 29 29 29 29 29 30 30 32 32 33 33 32 32 32 31 30 29 28 28 27 27 27 27 27 27 27 27 27 27 26
52 51 49 47 46 45 45 45 44 41 41 39 37 35 33 33 32 31 30 30 30 30 30 30 30 31 32 32 33 33 33 34 34 33 32 32 31 30 29 29 29 29 29 29 29 29 29 29 28
51 52 50 48 46 45 44 45 43 42 42 41 39 37 35 34 33 32 32 31 32 32 32 32 32 33 33 33 34 34 34 35 35 35 34 34 33 32 32 31 31 31 31 31 31 30 30 30 29
50 52 50 48 46 44 44 44 43 43 42 41 40 39 37 36 35 34 34 34 34 34 34 35 35 35 35 35 36 36 37 36 36 36 36 36 35 35 35 34 34 33 33 33 32 32 31 31 31
49 49 48 47 46 44 43 42 42 42 42 41 41 40 39 37 37 36 36 36 36 35 36 36 37 37 37 38 39 39 39 39 39 39 39 38 38 38 38 38 37 37 36 35 34 34 33 33 32
46 45 46 45 45 44 43 42 40 41 41 41 41 41 41 40 39 38 38 37 37 37 37 37 38 38 39 40 41 41 41 42 42 42 42 42 42 42 42 41 41 40 39 38 37 37 36 35 34
45 44 43 43 42 42 42 42 39 40 40 40 41 42 42 42 41 40 40 39 39 39 39 39 39 39 41 42 42 43 44 45 45 45 46 46 46 46 45 44 43 43 42 42 41 40 39 37 36
45 44 43 41 41 41 41 40 38 38 40 40 41 42 42 43 43 43 42 42 41 41 41 41 41 42 43 43 44 45 46 47 48 49 49 49 49 49 48 48 47 47 46 46 45 44 42 41 40
44 43 41 40 39 40 39 39 38 38 39 40 40 41 42 43 44 44 44 44 43 43 43 43 43 44 44 45 46 47 48 49 50 50 50 50 51 52 52 51 51 51 50 49 48 48 46 44 43
42 42 41 40 39 39 39 38 38 37 38 38 39 40 42 43 44 45 45 45 45 44 44 44 44 44 45 46 46 47 48 49 50 51 52 53 54 55 55 55 54 54 54 52 51 50 50 48 47
41 41 40 40 40 39 37 36 36 36 36 37 37 39 40 42 43 43 44 44 44 44 44 44 44 44 45 46 47 48 49 49 50 52 53 54 55 56 57 57 57 57 56 55 54 53 52 51 50
38 38 38 39 39 38 36 35 35 34 34 34 35 36 37 39 40 40 41 41 42 42 42 42 43 43 44 45 46 47 49 50 51 52 54 55 56 57 58 59 60 60 59 58 57 56 55 54 53
35 36 36 36 37 36 34 33 33 32 32 32 32 33 33 34 35 35 36 37 38 39 39 40 41 42 44 45 47 48 50 51 53 54 56 57 58 59 60 60 61 62 62 62 61 59 58 58 57
31 32 33 33 33 32 31 31 30 29 29 29 29 29 29 30 31 32 33 34 35 36 38 39 41 42 44 46 48 51 53 54 56 58 59 61 61 62 63 63 63 63 63 63 63 62 61 60 59
28 29 30 30 29 28 29 29 28 27 27 27 26 26 27 28 28 29 30 32 33 35 37 38 40 43 45 47 50 52 55 57 59 61 63 64 65 66 66 67 66 65 65 65 64 64 63 62 61
26 27 28 28 26 25 26 25 25 25 25 24 24 24 25 25 26 27 28 30 32 34 36 38 40 42 44 47 49 52 54 56 59 62 64 66 68 69 69 69 69 68 66 66 65 64 64 63 63
23 24 26 26 25 24 24 24 24 24 23 23 22 22 23 24 24 26 28 30 31 33 35 36 38 40 42 44 46 49 52 55 59 62 64 67 68 69 69 69 69 68 67 66 65 64 64 63 63
21 22 24 24 23 23 23 24 23 22 21 21 21 21 22 22 23 25 27 28 30 31 33 34 35 37 39 41 43 47 51 54 56 58 60 62 63 64 64 64 64 63 62 62 62 62 63 62 62
Wind_Direction
221 220 219 220 220 220 219 218 218 218 219 221 223 226 229 230 233 239 240 242 247 251 254 257 260 262 263 265 267 268 267 266 267 269 271 272 273 274 275 276 276 275 275 276 278 279 280 281 281
222 220 219 219 219 219 218 219 220 219 220 221 223 226 229 231 233 238 241 244 249 254 258 260 263 264 265 266 269 272 272 271 271 272 273 275 275 276 278 279 279 279 279 278 278 279 279 280 280
223 221 220 219 219 218 218 221 222 221 222 222 224 227 230 232 234 237 239 243 248 253 256 260 262 264 265 267 269 272 276 277 278 278 280 282 282 282 282 282 282 282 282 282 281 280 281 281 280
224 222 221 219 218 216 218 221 223 222 223 224 225 227 230 231 233 234 235 238 243 248 253 257 261 265 267 270 271 273 277 279 281 283 285 286 286 286 286 285 284 284 283 283 282 282 283 283 282
223 223 221 220 216 215 218 222 223 223 223 224 225 226 226 227 229 230 231 234 239 245 251 256 261 265 268 271 273 274 276 279 282 284 286 287 287 287 287 286 284 283 283 283 284 284 285 285 285
222 222 222 219 215 214 218 221 222 222 222 223 223 224 223 223 224 227 230 234 239 245 250 255 260 264 267 270 272 274 275 277 279 282 284 285 285 285 286 285 282 281 282 283 284 285 286 286 285
221 221 222 219 213 213 217 219 219 219 219 220 221 223 222 222 225 228 232 237 241 247 251 255 258 262 265 267 270 271 272 274 276 279 281 282 282 282 283 283 280 279 280 282 284 284 285 284 284
219 220 220 216 211 210 215 218 218 219 219 219 220 223 224 226 229 233 236 240 244 248 252 255 258 260 262 264 266 268 270 271 272 275 277 278 278 279 280 281 280 279 280 281 283 284 285 285 285
219 219 217 214 210 209 213 218 218 219 221 221 222 226 229 232 235 238 240 243 245 248 251 254 257 258 260 263 265 266 268 269 270 272 274 274 274 275 276 278 279 279 279 280 282 283 284 284 284
219 218 216 213 208 207 212 217 219 219 221 224 225 228 232 236 238 240 241 243 246 248 251 254 256 258 259 262 264 265 267 268 269 270 271 272 273 273 274 276 277 277 277 278 280 281 283 283 283
219 218 215 212 209 208 211 217 220 221 223 225 228 230 233 237 240 241 242 244 246 249 252 254 256 257 259 261 262 264 265 267 268 268 269 270 271 272 273 274 275 275 275 275 276 279 280 281 282
218 217 216 214 211 210 212 217 221 223 226 227 230 233 235 237 239 241 242 244 247 249 251 253 255 257 259 261 262 263 264 265 266 266 267 269 270 272 272 273 273 273 272 272 273 275 277 278 280
217 217 217 216 214 213 214 217 221 225 228 230 232 234 236 236 237 238 241 244 247 249 251 253 255 258 260 261 263 264 264 264 264 265 266 268 269 270 271 272 272 271 271 271 272 272 273 275 276
216 218 218 219 218 216 217 218 222 226 231 233 234 236 236 236 236 236 239 242 246 248 251 253 255 258 261 263 264 265 265 265 266 266 266 267 268 269 270 271 271 271 271 271 271 271 272 273 274
216 218 219 220 220 219 220 220 223 226 232 235 237 238 238 237 236 237 238 242 246 249 252 255 257 259 261 263 264 265 265 266 266 267 267 267 268 268 269 270 270 270 270 270 270 271 271 271 272
215 217 219 220 221 221 222 222 224 229 233 237 239 240 240 238 237 238 239 242 245 249 253 256 258 260 262 263 264 265 265 266 267 267 268 268 268 268 268 268 268 268 268 269 270 270 270 270 271
213 216 218 220 222 223 223 223 226 231 234 237 240 242 242 241 239 239 240 243 246 250 253 257 260 262 264 265 266 266 267 268 268 268 268 268 268 267 266 266 266 267 267 268 269 269 269 269 270
212 215 217 220 222 223 224 224 226 231 235 237 240 242 243 243 243 243 244 246 249 251 254 258 261 263 265 266 267 268 268 269 269 268 267 266 265 265 264 264 265 266 267 267 267 267 268 269 270
210 213 215 218 220 222 224 225 227 231 235 237 240 242 244 245 246 248 249 251 253 255 257 259 262 263 265 266 267 268 268 268 268 268 267 266 265 264 264 264 264 265 266 266 266 266 267 268 269
210 213 215 217 219 222 224 226 229 231 234 237 239 241 243 245 248 250 253 255 257 259 261 263 264 265 266 266 267 268 268 269 270 270 270 269 268 267 266 265 264 263 264 264 265 265 266 266 268
209 213 215 218 220 223 226 229 231 232 235 238 240 242 244 246 249 252 255 258 261 263 265 266 267 268 268 268 268 268 269 269 270 270 270 270 268 267 265 264 263 262 263 263 264 265 265 266 267
210 213 216 218 221 224 227 232 234 235 237 239 241 243 246 248 251 254 257 260 263 266 267 268 269 270 270 270 270 269 269 269 269 268 267 266 266 266 265 264 263 262 262 262 263 263 264 265 266
211 213 217 220 224 228 230 236 238 239 241 242 244 246 248 250 253 256 260 263 265 267 268 270 271 271 271 271 271 271 270 269 268 267 266 266 265 265 264 263 262 261 260 260 260 261 262 264 265
211 214 218 222 226 230 233 237 241 242 244 245 246 247 249 252 255 258 261 263 265 267 269 271 272 273 274 274 273 273 272 271 269 268 267 265 264 263 262 261 260 260 259 258 258 258 259 261 263
210 213 216 221 225 230 232 236 240 242 244 245 247 248 250 253 256 258 260 263 265 268 271 273 274 275 276 276 276 275 275 274 272 271 269 267 265 263 262 260 259 258 258 257 257 257 257 259 261
205 209 213 218 223 226 228 232 235 237 240 243 245 247 250 252 255 258 261 265 268 271 273 275 276 277 278 278 279 278 278 277 276 274 272 269 267 264 262 260 258 257 256 256 256 256 257 257 259
202 205 210 215 219 219 222 227 230 231 234 238 241 245 248 252 256 260 264 268 271 273 275 277 278 279 280 281 281 281 280 279 278 276 274 271 269 266 263 261 258 256 255 255 255 256 257 257 259
205 206 208 212 214 215 218 221 223 225 228 232 237 243 248 254 259 263 267 270 273 275 277 279 280 281 282 283 283 283 283 282 280 279 276 273 270 267 263 261 259 257 255 254 254 255 256 257 259
207 208 211 214 214 214 215 218 219 222 225 230 236 243 249 254 260 265 270 273 276 278 280 281 282 283 284 285 286 286 286 284 283 280 278 274 270 266 263 261 259 258 256 254 253 253 254 255 257
213 214 215 215 213 213 215 217 218 221 226 232 238 244 249 255 262 267 272 275 278 280 281 282 284 286 288 289 290 291 290 289 287 285 280 275 270 266 263 261 259 258 256 255 254 253 252 253 255